Regional Weather Roundup
Issued by NWS

Home | Current Version | Previous Version | Graphics & Text | Print | Product List | Glossary On
Versions: 1 2 3 4 5 6 7 8 9 10 11 12 13 14 15 16 17 18 19 20 21 22 23 24 25 26 27 28 29 30 31 32 33 34 35 36 37 38 39 40 41 42 43 44 45 46 47 48 49 50
000
ASUS43 KLMK 282310
RWRKY
KENTUCKY REGIONAL WEATHER ROUNDUP
NATIONAL WEATHER SERVICE LOUISVILLE KY
700 PM EDT THU APR 28 2016

NOTE "FAIR" INDICATES FEW OR NO CLOUDS BELOW 12,000 FEET
WITH NO SIGNIFICANT WEATHER AND/OR OBSTRUCTIONS TO VISIBILITY.

KYZ001>023-026-027-061>063-070>075-290000-
WESTERN AND SOUTH CENTRAL KENTUCKY

CITY           SKY/WX    TMP DP  RH WIND       PRES   REMARKS
PADUCAH        SUNNY     77  48  35 W8        29.91R
HENDERSON      SUNNY     75  52  43 W10       29.88R
OWENSBORO      SUNNY     76  55  47 W10       29.90R
HOPKINSVILLE   SUNNY     78  51  38 W14       29.91R
BOWLING GREEN  SUNNY     79  51  37 W10       29.90R
GLASGOW        MOSUNNY   77  55  46 W8        29.91R
$$

KYZ024-025-028>034-038-045-046-053-290000-
NORTH CENTRAL KENTUCKY

CITY           SKY/WX    TMP DP  RH WIND       PRES   REMARKS
LOUISVILLE/SDF MOSUNNY   76  46  34 W17       29.87R
LOUISVILLE/LOU SUNNY     76  47  35 W14G28    29.87R
FORT KNOX      SUNNY     75  50  41 SW10      29.87R
$$

KYZ035>037-039>044-047>052-055>060-089>105-290000-
NORTHEAST KENTUCKY

CITY           SKY/WX    TMP DP  RH WIND       PRES   REMARKS
LEXINGTON      MOSUNNY   76  52  43 W15G25    29.86R
COVINGTON      MOSUNNY   74  51  44 W17G25    29.84R
FRANKFORT      SUNNY     77  49  37 W10G23    29.86R
$$

KYZ054-064>069-076>088-106>120-290000-
SOUTHEAST KENTUCKY

CITY           SKY/WX    TMP DP  RH WIND       PRES   REMARKS
JACKSON        CLOUDY    71  57  61 VRB5      29.88F
LONDON         SUNNY     76  58  53 W13       29.89R
SOMERSET       MOSUNNY   73  55  53 W8        29.90S
MIDDLESBORO    MOSUNNY   80  53  37 W7        29.89R
MONTICELLO     PTCLDY    78  58  49 W18G26    29.91R
$$





USA.gov is the U.S. government's official web portal to all federal, state and local government web resources and services.